5B4ALR-13 Weather Reports


time (UTC)temp
C
wind
direction
speed
KPH
gust
KPH
rain 1hr
cm
rain 24hr
cm
rain mn
cm
humidity
%
barometer
mb
20260906125256 35 202 6.4 11.3 0.00 0.00 0.00 45 1009.8
20260906124256 34 180 8.0 11.3 0.00 0.00 0.00 46 1009.9
20260906123256 35 180 3.2 9.7 0.00 0.00 0.00 50 1010.0
20260906122256 34 180 1.6 3.2 0.00 0.00 0.00 47 1009.9
20260906121256 34 180 1.6 1.6 0.00 0.00 0.00 48 1010.0
20260906120256 34 157 1.6 1.6 0.00 0.00 0.00 46 1010.1
20260906115256 33 270 1.6 1.6 0.00 0.00 0.00 49 1010.1
20260906114256 33 225 4.8 4.8 0.00 0.00 0.00 56 1010.1
20260906113256 34 157 3.2 4.8 0.00 0.00 0.00 52 1010.2
20260906112256 34 180 3.2 4.8 0.00 0.00 0.00 52 1010.2
20260906111256 34 180 3.2 4.8 0.00 0.00 0.00 49 1010.3
20260906110256 34 180 1.6 1.6 0.00 0.00 0.00 48 1010.4
20260906105256 33 225 3.2 3.2 0.00 0.00 0.00 48 1010.5
20260906104256 33 45 1.6 1.6 0.00 0.00 0.00 50 1010.6
20260906103256 33 180 1.6 1.6 0.00 0.00 0.00 49 1010.6
20260906102256 33 135 1.6 1.6 0.00 0.00 0.00 51 1010.6
20260906101256 33 225 1.6 1.6 0.00 0.00 0.00 53 1010.8
20260906100256 33 225 1.6 1.6 0.00 0.00 0.00 51 1010.8
20260906095256 33 180 3.2 4.8 0.00 0.00 0.00 52 1010.9
20260906094256 33 67 1.6 1.6 0.00 0.00 0.00 54 1010.9
20260906093256 32 135 1.6 1.6 0.00 0.00 0.00 57 1011.0
20260906092256 32 180 0.0 0.0 0.00 0.00 0.00 59 1011.0
20260906091256 31 90 3.2 3.2 0.00 0.00 0.00 60 1011.0
20260906090256 31 45 3.2 3.2 0.00 0.00 0.00 59 1011.1
20260906085256 32 45 3.2 3.2 0.00 0.00 0.00 58 1011.1
20260906084256 32 90 0.0 0.0 0.00 0.00 0.00 55 1011.2
20260906083256 32 270 0.0 0.0 0.00 0.00 0.00 56 1011.1
20260906082256 31 90 3.2 3.2 0.00 0.00 0.00 58 1011.1
20260906081256 31 180 0.0 0.0 0.00 0.00 0.00 57 1011.1
20260906080256 31 90 1.6 1.6 0.00 0.00 0.00 57 1011.1
20260906075256 32 45 1.6 1.6 0.00 0.00 0.00 56 1011.2
20260906074256 32 90 1.6 1.6 0.00 0.00 0.00 54 1011.2
20260906073256 32 45 0.0 0.0 0.00 0.00 0.00 55 1011.3
20260906072256 32 135 0.0 1.6 0.00 0.00 0.00 52 1011.3
20260906071256 32 67 1.6 1.6 0.00 0.00 0.00 53 1011.3
20260906070256 33 90 1.6 1.6 0.00 0.00 0.00 51 1011.3
20260906065256 34 90 0.0 0.0 0.00 0.00 0.00 44 1011.1
20260906064256 33 180 0.0 0.0 0.00 0.00 0.00 41 1011.0
20260906063256 33 0 0.0 0.0 0.00 0.00 0.00 46 1011.0
20260906062256 32 45 0.0 0.0 0.00 0.00 0.00 51 1011.0
20260906061256 32 0 0.0 0.0 0.00 0.00 0.00 52 1011.1
20260906060256 32 315 0.0 1.6 0.00 0.00 0.00 55 1011.1
20260906055256 32 270 0.0 0.0 0.00 0.00 0.00 56 1011.0
20260906054256 31 315 0.0 0.0 0.00 0.00 0.00 58 1011.0
20260906053256 31 270 0.0 0.0 0.00 0.00 0.00 58 1010.9
20260906052256 31 270 0.0 0.0 0.00 0.00 0.00 59 1010.9
20260906051256 31 270 0.0 0.0 0.00 0.00 0.00 60 1010.9
20260906050256 30 225 0.0 0.0 0.00 0.00 0.00 61 1011.0
20260906045256 30 315 0.0 0.0 0.00 0.00 0.00 64 1011.0
20260906044256 28 135 0.0 0.0 0.00 0.00 0.00 66 1011.1
20260906043256 28 270 0.0 1.6 0.00 0.00 0.00 67 1011.1
20260906042256 27 0 0.0 0.0 0.00 0.00 0.00 69 1011.1
20260906041256 27 0 0.0 0.0 0.00 0.00 0.00 71 1011.0
20260906040256 26 315 0.0 0.0 0.00 0.00 0.00 72 1011.1
20260906035256 26 0 0.0 0.0 0.00 0.00 0.00 74 1011.1
20260906034256 25 45 0.0 0.0 0.00 0.00 0.00 74 1011.0
20260906033256 25 45 0.0 0.0 0.00 0.00 0.00 76 1010.9
20260906032256 25 0 0.0 0.0 0.00 0.00 0.00 76 1010.8
20260906031256 25 270 0.0 0.0 0.00 0.00 0.00 76 1010.8
20260906030256 25 315 0.0 0.0 0.00 0.00 0.00 76 1010.6
20260906025256 25 270 0.0 0.0 0.00 0.00 0.00 76 1010.6
20260906024256 25 45 0.0 0.0 0.00 0.00 0.00 76 1010.6
20260906023256 26 315 0.0 0.0 0.00 0.00 0.00 76 1010.4
20260906022256 26 0 0.0 0.0 0.00 0.00 0.00 76 1010.5
20260906021256 26 0 0.0 0.0 0.00 0.00 0.00 76 1010.6
20260906020256 26 292 0.0 0.0 0.00 0.00 0.00 76 1010.5
20260906015256 26 45 0.0 0.0 0.00 0.00 0.00 76 1010.5
20260906014256 26 45 1.6 1.6 0.00 0.00 0.00 77 1010.5
20260906013256 26 292 0.0 0.0 0.00 0.00 0.00 76 1010.5
20260906012256 26 45 0.0 0.0 0.00 0.00 0.00 76 1010.4
20260906011256 26 315 0.0 0.0 0.00 0.00 0.00 75 1010.4
20260906010256 26 0 0.0 0.0 0.00 0.00 0.00 75 1010.3
20260906005256 26 315 0.0 0.0 0.00 0.00 0.00 74 1010.2
20260906004256 26 0 0.0 0.0 0.00 0.00 0.00 74 1010.4
20260906003256 26 315 0.0 0.0 0.00 0.00 0.00 74 1010.4
20260906002256 26 270 0.0 0.0 0.00 0.00 0.00 73 1010.5
20260906001256 26 315 0.0 0.0 0.00 0.00 0.00 72 1010.4
20260906000256 26 0 0.0 0.0 0.00 0.00 0.00 72 1010.3
20260905235256 27 45 0.0 0.0 0.00 0.00 0.00 72 1010.3
20260905234256 27 315 0.0 0.0 0.00 0.00 0.00 72 1010.4
20260905233256 27 0 0.0 0.0 0.00 0.00 0.00 72 1010.4
20260905232256 27 135 0.0 0.0 0.00 0.00 0.00 73 1010.4
20260905231256 27 135 0.0 0.0 0.00 0.00 0.00 73 1010.5
20260905230256 27 315 0.0 0.0 0.00 0.00 0.00 73 1010.7
20260905225256 27 315 0.0 0.0 0.00 0.00 0.00 73 1010.7
20260905224256 27 180 0.0 0.0 0.00 0.00 0.00 73 1010.6
20260905223256 27 315 0.0 0.0 0.00 0.00 0.00 73 1010.5
20260905222256 27 225 0.0 0.0 0.00 0.00 0.00 73 1010.7
20260905221256 27 225 0.0 0.0 0.00 0.00 0.00 73 1010.7
20260905220256 27 270 0.0 0.0 0.00 0.00 0.00 73 1010.7
20260905215256 27 315 0.0 0.0 0.00 0.00 0.00 72 1010.7
20260905214256 27 315 0.0 0.0 0.00 0.00 0.00 72 1010.7
20260905213256 28 315 0.0 0.0 0.00 0.00 0.00 72 1010.6
20260905212256 28 180 0.0 0.0 0.00 0.00 0.00 72 1010.7
20260905211256 28 270 0.0 0.0 0.00 0.00 0.00 72 1010.9
20260905210256 28 292 0.0 0.0 0.00 0.00 0.00 72 1011.0
20260905205256 28 157 0.0 0.0 0.00 0.00 0.00 72 1010.8
20260905204256 28 180 1.6 1.6 0.00 0.00 0.00 72 1011.0
20260905203255 28 180 0.0 0.0 0.00 0.00 0.00 71 1011.2
20260905202256 28 180 0.0 1.6 0.00 0.00 0.00 71 1011.2
20260905201256 28 180 0.0 0.0 0.00 0.00 0.00 71 1011.2
20260905200256 28 247 0.0 0.0 0.00 0.00 0.00 71 1011.2
20260905195256 28 225 0.0 0.0 0.00 0.00 0.00 71 1011.1
20260905194256 28 225 0.0 0.0 0.00 0.00 0.00 71 1011.2
20260905193256 28 270 0.0 0.0 0.00 0.00 0.00 70 1011.1
20260905192255 28 270 0.0 0.0 0.00 0.00 0.00 70 1011.1
20260905191256 28 270 1.6 1.6 0.00 0.00 0.00 70 1011.0
20260905190255 28 0 0.0 0.0 0.00 0.00 0.00 70 1011.1
20260905185255 28 315 1.6 1.6 0.00 0.00 0.00 70 1011.2
20260905184255 28 0 0.0 0.0 0.00 0.00 0.00 69 1011.3
20260905183255 28 292 0.0 0.0 0.00 0.00 0.00 69 1011.3
20260905182255 28 315 0.0 0.0 0.00 0.00 0.00 69 1011.2
20260905181255 29 315 0.0 0.0 0.00 0.00 0.00 68 1011.2
20260905180255 29 315 0.0 0.0 0.00 0.00 0.00 68 1011.2
20260905175255 29 270 0.0 0.0 0.00 0.00 0.00 68 1011.2
20260905174255 29 270 1.6 1.6 0.00 0.00 0.00 68 1011.1
20260905173255 30 270 1.6 1.6 0.00 0.00 0.00 67 1011.1
20260905172255 30 0 0.0 0.0 0.00 0.00 0.00 66 1010.9
20260905171255 30 315 1.6 1.6 0.00 0.00 0.00 66 1010.7
20260905170255 30 270 0.0 0.0 0.00 0.00 0.00 69 1010.7
20260905165255 29 225 0.0 1.6 0.00 0.00 0.00 70 1010.6
20260905164255 29 135 0.0 0.0 0.00 0.00 0.00 71 1010.5
20260905163256 29 247 0.0 0.0 0.00 0.00 0.00 72 1010.5
20260905162301 29 180 3.2 3.2 0.00 0.00 0.00 72 1010.5
20260905161255 29 180 3.2 3.2 0.00 0.00 0.00 71 1010.4
20260905160255 29 225 3.2 3.2 0.00 0.00 0.00 71 1010.3
20260905155255 29 225 1.6 1.6 0.00 0.00 0.00 70 1010.3
20260905154255 30 202 1.6 1.6 0.00 0.00 0.00 69 1010.2
20260905153255 30 270 3.2 3.2 0.00 0.00 0.00 66 1010.1
20260905152255 30 180 3.2 6.4 0.00 0.00 0.00 65 1010.2
20260905151255 31 180 1.6 4.8 0.00 0.00 0.00 63 1010.2
20260905150255 31 180 3.2 6.4 0.00 0.00 0.00 62 1010.2
20260905145255 31 180 3.2 11.3 0.00 0.00 0.00 59 1010.1
20260905144255 31 180 1.6 3.2 0.00 0.00 0.00 60 1010.2
20260905143255 31 180 3.2 9.7 0.00 0.00 0.00 59 1010.2
20260905142255 31 180 1.6 4.8 0.00 0.00 0.00 58 1010.3
20260905141255 32 180 3.2 6.4 0.00 0.00 0.00 55 1010.3
20260905140255 32 180 1.6 4.8 0.00 0.00 0.00 55 1010.3
20260905135255 32 180 3.2 8.0 0.00 0.00 0.00 55 1010.2
20260905134255 32 180 3.2 9.7 0.00 0.00 0.00 54 1010.3
20260905133255 32 180 4.8 12.9 0.00 0.00 0.00 57 1010.4
20260905132255 32 225 1.6 1.6 0.00 0.00 0.00 58 1010.4
20260905131255 32 157 1.6 3.2 0.00 0.00 0.00 59 1010.5
20260905130255 32 135 1.6 1.6 0.00 0.00 0.00 58 1010.4